• Join FlightAware (Why Join?)
  • Login
  • US Flag GB Flag 
09:55 EDT


 

Airport Tracker/Info


-or-


 

Live Flight TrackerFlight Track Log ✈ CTL22 ✈ 26-Apr-2013 ✈ KBKL - KGRR

Flight Track Log - Related Links

Times and Time Zones

All times are in EDT time to prevent confusion due to time zone crossing. See the CTL22 flight status page for this flight to view local times or setup timezone preferences in your user account.

Time Position Orientation Groundspeed Altitude Reporting Facility
EDT Latitude Longitude Course Direction KTS MPH feet Rate Location/Type
21:40 41.5561 -81.7319 308° West 140 161 2,500  Level Cleveland Center
21:41 41.5869 -81.7742 314° West 159 183 3,000 240 Climbing Cleveland Center
21:42 41.6136 -81.8164 310° West 172 198 3,000 180 Level Cleveland Center
21:43 41.6442 -81.8669 309° West 168 193 3,400 600 Climbing Cleveland Center
21:43 41.6503 -81.8808 300° West 169 194 3,900 840 Climbing Cleveland Center
21:44 41.6728 -81.9286 302° West 164 189 4,700 840 Climbing Cleveland Center
21:45 41.6931 -81.9819 297° West 164 189 5,600 660 Climbing Cleveland Center
21:46 41.7153 -82.0325 301° West 159 183 6,100 300 Climbing Cleveland Center
21:47 41.7394 -82.0858 301° West 159 183 6,200  Climbing Cleveland Center
21:48 41.7661 -82.1367 305° West 164 189 6,100 -60 Descending Cleveland Center
21:49 41.7903 -82.1900 301° West 164 189 6,100  Level Cleveland Center
21:50 41.8125 -82.2436 299° West 164 189 6,100  Level Cleveland Center
21:51 41.8344 -82.2997 298° West 164 189 6,100  Level Cleveland Center
21:52 41.8586 -82.3536 301° West 164 189 6,100 -60 Level Cleveland Center
21:53 41.8808 -82.4100 298° West 169 194 6,000 -60 Descending Cleveland Center
21:54 41.9050 -82.4608 303° West 168 193 6,000  Level Cleveland Center
21:55 41.9250 -82.5117 298° West 169 194 6,000  Level Cleveland Center
21:56 41.9489 -82.5739 303° West 167 192 6,000  Level Cleveland Center
21:56 41.9489 -82.5739 303° West 169 194 6,000  Level Cleveland Center
21:57 41.9708 -82.6275 299° West 169 194 6,000  Level Cleveland Center
21:58 41.9908 -82.6783 298° West 169 194 6,000  Level Cleveland Center
21:59 42.0106 -82.7350 295° West 167 192 6,000  Level Cleveland Center
22:00 42.0344 -82.7944 298° West 170 196 6,000  Level Cleveland Center
22:01 42.0542 -82.8511 295° West 169 194 6,000  Level Cleveland Center
22:02 42.0800 -82.9136 299° West 169 194 6,000  Level Cleveland Center
22:03 42.1039 -82.9733 298° West 165 190 6,000  Level Cleveland Center
22:04 42.1236 -83.0300 295° West 165 190 6,000  Level Cleveland Center
22:05 42.1453 -83.0811 300° West 164 189 6,000  Level Cleveland Center
22:06 42.1631 -83.1294 296° West 164 189 6,000  Level Cleveland Center
22:07 42.1847 -83.1922 295° West 163 188 6,000  Level Cleveland Center
22:08 42.2000 -83.2489 290° West 163 188 6,000  Level Cleveland Center
22:09 42.2256 -83.3172 297° West 162 186 6,000  Level Cleveland Center
22:10 42.2408 -83.3739 290° West 163 188 6,000  Level Cleveland Center
22:11 42.2603 -83.4308 295° West 164 189 6,000  Level Cleveland Center
22:12 42.2778 -83.4822 295° West 163 188 6,000  Level Cleveland Center
22:13 42.2911 -83.5306 290° West 160 184 6,000  Level Cleveland Center
22:14 42.3106 -83.5875 295° West 161 185 6,000  Level Cleveland Center
22:15 42.3297 -83.6447 294° West 161 185 6,000  Level Cleveland Center
22:17 42.3566 -83.7059 301° West  Level FlightAware Approximate
22:24 42.5105 -84.0587 301° West  Level FlightAware Approximate
22:25 42.5324 -84.1093 300° West  Level FlightAware Approximate
22:26 42.5465 -84.1647 289° West  Level Estimated
22:27 42.5607 -84.2201 289° West  Level FlightAware Approximate
22:28 42.5750 -84.2755 289° West  Level FlightAware Approximate
22:29 42.5892 -84.3309 289° West  Level FlightAware Approximate
22:29 42.5558 -84.3717 289° West 160 184 6,100  Level Chicago Center
22:30 42.6034 -84.3864 289° West  Level FlightAware Approximate
22:30 42.5733 -84.4272 293° West 159 183 6,100  Level Chicago Center
22:31 42.6176 -84.4419 289° West  Level FlightAware Approximate
22:31 42.5917 -84.4819 294° West 160 184 6,000  Level Chicago Center
22:32 42.6317 -84.4974 289° West  Level FlightAware Approximate
22:32 42.6136 -84.5483 294° West 161 185 6,100  Level Chicago Center
22:33 42.6459 -84.5529 289° West  Level FlightAware Approximate
22:33 42.6319 -84.6031 294° West 160 184 6,100  Level Chicago Center
22:34 42.6600 -84.6084 289° West  Level FlightAware Approximate
22:34 42.6503 -84.6578 295° West 161 185 6,100  Level Chicago Center
22:35 42.6689 -84.7111 295° West 158 182 6,100  Level Chicago Center
22:36 42.6844 -84.7667 291° West 158 182 6,100  Level Chicago Center
22:37 42.7006 -84.8219 292° West 158 182 6,100  Level Chicago Center
22:38 42.7164 -84.8772 291° West 157 181 6,100  Level Chicago Center
22:39 42.7322 -84.9325 291° West 158 182 6,100 -60 Level Chicago Center
22:40 42.7472 -84.9881 290° West 157 181 6,000  Descending Chicago Center
22:41 42.7647 -85.0547 290° West 158 182 6,100 -60 Climbing Chicago Center
22:42 42.7797 -85.1100 290° West 157 181 5,900 -300 Descending Chicago Center
22:43 42.7967 -85.1683 292° West 163 188 5,500 -540 Descending Chicago Center
22:44 42.8142 -85.2278 292° West 168 193 4,900 -600 Descending Chicago Center
22:45 42.8306 -85.2864 291° West 167 192 4,300 -780 Descending Chicago Center
22:46 42.8483 -85.3461 292° West 169 194 3,400 -900 Descending Chicago Center
22:47 42.8658 -85.4083 291° West 174 200 2,500 -840 Descending Chicago Center
22:48 42.8794 -85.4694 287° West 173 199 1,700 -840 Descending Chicago Center
22:49 42.8794 -85.5214 270° West 148 170 900 -840 Descending Chicago Center
22:51 42.8808 -85.5228 270° West  Level Estimated